Overview Statistics Trail Chart Weather Telemetry Raw packets
 

This is the latest recevied weather packets stored in our database for station/object KD7CIH. If no packets are shown the sender has not sent any weather packets the latest 10 day(s).

<< 111 112 113 114 115 >>
Time Temp. Humidity Pressure Rain* Wind** Luminosity Snow
1787859567 29.44° C 21% 1018.9 hPa 0 mm - - -
1787859261 28.89° C 21% 1019 hPa 0 mm - - -
1787858957 28.89° C 21% 1019 hPa 0 mm - - -
1787858658 29.44° C 20% 1019.3 hPa 0 mm - - -
1787858356 29.44° C 24% 1019.3 hPa 0 mm - - -
1787858058 28.89° C 22% 1019.5 hPa 0 mm - - -
1787857756 28.89° C 22% 1019.5 hPa 0 mm - - -
1787857581 28.89° C 22% 1019.8 hPa 0 mm - - -
1787857157 28.89° C 23% 1019.9 hPa 0 mm - - -
1787856855 28.89° C 23% 1020 hPa 0 mm - - -
1787856555 28.89° C 22% 1020 hPa 0 mm - - -
1787856254 28.33° C 23% 1020.1 hPa 0 mm - - -
1787855954 28.33° C 23% 1020.1 hPa 0 mm - - -
1787855651 28.33° C 23% 1020.4 hPa 0 mm - - -
1787855350 28.33° C 25% 1020.5 hPa 0 mm - - -
1787855178 28.33° C 23% 1020.5 hPa 0 mm - - -
1787854751 28.33° C 25% 1020.5 hPa 0 mm - - -
1787854450 27.78° C 25% 1020.7 hPa 0 mm - - -
1787854148 27.78° C 25% 1020.9 hPa 0 mm - - -
1787853846 27.22° C 25% 1020.7 hPa 0 mm - - -
1787853673 27.22° C 25% 1020.9 hPa 0 mm - - -
1787853242 27.22° C 25% 1021 hPa 0 mm - - -
1787852936 26.67° C 25% 1021 hPa 0 mm - - -
1787852632 26.67° C 26% 1021.1 hPa 0 mm - - -
1787852325 26.67° C 27% 1021.1 hPa 0 mm - - -

* Rain latest hour (hover to see other rain measurements)
** Current wind speed in m/s (hover to see current wind gust speed)